Probability
0 0 0 0 0 0 0 0 0 0 0 0 0 0 0 0 0 0 0 0 0 0 0 0 0 0 0 0 0 0 0 0 0 0 0 0 0 0 0 0 0 0 0 0
0 0 0 0 0 0 0 0 0 0 0 0 0 0 0 0 0 0 0 0 0 0 0 0 0 0 0 0 0 0 0 0 0 0 0 0 0 0 0 0 0 0 0 0
0 0 0 0 0 0 0 0 0 0 0 0 0 0 0 0 0 0 0 0 0 0 0 0 0 0 0 0 0 0 0 0 0 0 0 0 0 0 0 0 0 0 0 0
0 0 0 0 0 0 0 0 0 0 0 0 0 0 0 0 0 0 0 0 0 0 0 0 0 0 0 0 0 0 0 0 0 0 0 0 0 0 0 0 0 0 0 0
0 0 0 0 0 0 0 0 0 0 0 0 0 0 0 0 0 0 0 0 0 0 0 0 0 0 0 0 0 0 0 0 0 0 0 0 0 0 0 0 0 0 0 0
0 0 0 0 0 0 0 0 0 0 0 0 0 0 0 0 0 0 0 0 0 0 0 0 0 0 0 0 0 0 0 0 0 0 0 0 0 0 0 0 0 0 0 0
0 0 0 0 0 0 0 0 0 0 0 0 0 0 0 0 0 0 0 0 0 0 0 0 0 0 0 0 0 0 0 0 0 0 0 0 0 0 0 0 0 0 0 0
0 0 0 0 0 0 0 0 0 0 0 0 0 0 0 0 0 0 0 0 0 0 0 0 0 0 0 0 0 0 0 0 0 0 0 0 0 0 0 0 0 0 0 0
0 0 0 0 0 0 0 0 0 0 0 0 0 0 0 0 0 0 0 0 0 0 0 0 0 0 0 0 0 0 0 0 0 0 0 0 0 0 0 0 0 0 0 0
0 0 0 0 0 0 0 0 0 0 0 0 0 0 0 0 0 0 0 0 0 0 0 0 0 0 0 0 0 0 0 0 0 0 0 0 0 0 0 0 0 0 0 0
0 0 0 0 0 0 0 0 0 0 0 0 0 0 0 0 0 0 0 0 0 0 0 0 0 0 0 0 0 0 0 0 0 0 0 0 0 0 0 0 0 0 0 0
0 0 0 0 0 0 0 0 0 0 0 0 0 0 0 0 0 0 0 0 0 0 0 0 0 0 0 0 0 0 0 0 0 0 0 0 0 0 0 0 0 0 0 0
0 0 0 0 0 0 0 0 0 0 0 0 0 0 0 0 0 0 0 0 0 0 0 0 0 0 0 0 0 0 0 0 0 0 0 0 0 0 0 0 0 0 0 0
0 0 0 0 0 0 0 0 0 0 0 0 0 0 0 0 0 0 0 0 0 0 0 0 0 0 0 0 0 0 0 0 0 0 0 0 0 0 0 0 0 0 0 0
0 0 0 0 0 0 0 0 0 0 0 0 0 0 0 0 0 0 0 0 0 0 0 0 0 0 0 0 0 0 0 0 0 0 0 0 0 0 0 0 0 0 0 0
0 0 0 0 0 0 0 0 0 0 0 0 0 0 0 0 0 0 0 0 0 0 0 0 0 0 0 0 0 0 0 0 0 0 0 0 0 0 0 0 0 0 0 0
0 0 0 0 0 0 0 0 0 0 0 0 0 0 0 0 0 0 0 0 0 0 0 0 0 0 0 0 0 0 0 0 0 0 0 0 0 0 0 0 0 0 0 0
0 0 0 0 0 0 0 0 0 0 0 0 0 0 0 0 0 0 0 0 0 0 0 0 0 0 0 0 0 0 0 0 0 0 0 0 0 0 0 0 0 0 0 0
0 0 0 0 0 0 0 0 0 0 0 0 0 0 0 0 0 0 0 0 0 0 0 0 0 0 0 0 0 0 0 0 0 0 0 0 0 0 0 0 0 0 0 0
0 0 0 0 0 0 0 0 0 0 0 0 0 0 0 0 0 0 0 0 0 0 0 0 0 0 0 0 0 0 0 0 0 0 0 0 0 0 0 0 0 0 0 0
0 0 0 0 0 0 0 0 0 0 0 0 0 0 0 0 0 0 0 0 0 0 0 0 0 0 0 0 0 0 0 0 0 0 0 0 0 0 0 0 0 0 0 0
0 0 0 0 0 0 0 0 0 0 0 0 0 0 0 0 0 0 0 0 0 0 0 0 0 0 0 0 0 0 0 0 0 0 0 0 0 0 0 0 0 0 0 0
0 0 0 0 0 0 0 0 0 0 0 0 0 0 0 0 0 0 0 0 0 0 0 0 0 0 0 0 0 0 0 0 0 0 0 0 0 0 0 0 0 0 0 0
0 0 0 0 0 0 0 0 0 0 0 0 0 0 0 0 0 0 0 0 0 0 0 0 0 0 0 0 0 0 0 0 0 0 0 0 0 0 0 0 0 0 0 0
0 0 0 0 0 0 0 0 0 0 0 0 0 0 0 0 0 0 0 0 0 0 0 0 0 0 0 0 0 0 0 0 0 0 0 0 0 0 0 0 0 0 0 0
0 0 0 0 0 0 0 0 0 0 0 0 0 0 0 0 0 0 0 0 0 0 0 0 0 0 0 0 0 0 0 0 0 0 0 0 0 0 0 0 0 0 0 0
0 0 0 0 0 0 0 0 0 0 0 0 0 0 0 0 0 0 0 0 0 0 0 0 0 0 0 0 0 0 0 0 0 0 0 0 0 0 0 0 0 0 0 0
Height
5561 5564 5568 5571 5575 5578 5580 5583 5586 5591 5593 5596 5596 5596 5596 5596 5596 5596 5597 5596 5595 5594 5593 5591 5589 5586 5583 5580 5576 5573 5569 5565 5560 5555 5550 5545 5541 5536 5531 5526 5521 5517 5512 5508
5550 5553 5556 5559 5563 5566 5569 5572 5574 5577 5581 5583 5583 5583 5584 5584 5584 5584 5584 5583 5582 5581 5580 5578 5576 5573 5570 5566 5563 5559 5555 5551 5546 5541 5536 5531 5527 5522 5518 5513 5508 5503 5499 5495
5539 5542 5543 5548 5554 5556 5559 5561 5563 5565 5570 5570 5570 5571 5571 5571 5571 5571 5571 5570 5569 5568 5567 5564 5562 5559 5556 5553 5549 5545 5541 5536 5532 5527 5522 5518 5513 5509 5504 5500 5495 5491 5486 5482
5528 5531 5534 5542 5544 5545 5547 5549 5551 5553 5555 5556 5557 5558 5558 5558 5558 5558 5558 5557 5556 5555 5553 5551 5548 5545 5542 5539 5535 5531 5527 5523 5518 5514 5509 5505 5501 5496 5492 5487 5483 5479 5475 5471
5518 5520 5523 5529 5532 5533 5535 5537 5539 5540 5542 5543 5544 5545 5547 5546 5546 5545 5544 5544 5542 5541 5539 5537 5534 5531 5528 5524 5521 5517 5513 5509 5504 5500 5496 5493 5489 5484 5480 5475 5472 5468 5464 5461
5508 5510 5514 5520 5521 5521 5523 5525 5527 5528 5529 5531 5531 5533 5535 5534 5533 5532 5531 5530 5528 5527 5525 5522 5520 5517 5513 5510 5507 5503 5500 5496 5492 5488 5484 5480 5477 5473 5469 5464 5461 5457 5454 5451
5498 5500 5503 5508 5509 5510 5513 5515 5515 5516 5517 5518 5519 5520 5521 5520 5520 5519 5517 5516 5515 5513 5511 5508 5506 5503 5500 5497 5493 5490 5487 5483 5480 5476 5472 5469 5465 5461 5457 5454 5450 5447 5445 5442
5490 5492 5498 5497 5498 5501 5501 5502 5503 5504 5505 5506 5506 5507 5507 5507 5506 5505 5504 5503 5501 5499 5497 5494 5491 5489 5486 5483 5480 5477 5474 5471 5468 5464 5461 5457 5454 5451 5447 5443 5440 5438 5436 5434
5482 5485 5486 5486 5488 5489 5490 5491 5492 5493 5493 5494 5495 5495 5495 5495 5494 5492 5491 5489 5487 5485 5484 5481 5478 5475 5473 5471 5468 5465 5462 5459 5456 5453 5450 5446 5443 5440 5437 5434 5431 5429 5427 5426
5472 5474 5475 5476 5477 5478 5479 5480 5481 5482 5483 5483 5484 5484 5484 5483 5482 5480 5478 5476 5474 5472 5470 5468 5465 5462 5460 5458 5455 5453 5450 5448 5445 5442 5440 5436 5433 5430 5428 5425 5423 5421 5419 5419
5462 5464 5465 5467 5468 5468 5469 5470 5471 5472 5472 5472 5472 5472 5472 5471 5470 5468 5466 5464 5461 5459 5457 5455 5453 5450 5447 5445 5443 5440 5438 5436 5434 5431 5429 5427 5424 5421 5419 5417 5414 5413 5412 5412
5453 5455 5456 5457 5458 5459 5459 5460 5461 5461 5462 5461 5461 5461 5460 5459 5458 5456 5454 5451 5449 5447 5445 5443 5440 5438 5435 5433 5431 5429 5428 5426 5423 5421 5419 5417 5415 5413 5410 5409 5407 5406 5406 5406
5444 5445 5446 5447 5448 5449 5450 5450 5451 5451 5451 5451 5450 5449 5448 5447 5446 5444 5442 5439 5437 5435 5433 5431 5429 5427 5424 5422 5420 5419 5417 5415 5413 5411 5409 5407 5406 5404 5403 5402 5400 5400 5400 5400
5435 5436 5437 5438 5439 5440 5440 5441 5441 5441 5441 5440 5439 5438 5437 5436 5435 5433 5431 5428 5426 5424 5422 5420 5418 5416 5414 5412 5411 5409 5408 5406 5404 5402 5400 5399 5397 5396 5395 5395 5395 5395 5395 5395
5427 5428 5429 5429 5430 5431 5431 5431 5431 5431 5430 5430 5429 5428 5427 5426 5424 5422 5420 5418 5416 5414 5412 5410 5408 5406 5404 5403 5402 5400 5399 5397 5396 5394 5393 5391 5390 5389 5389 5388 5389 5390 5390 5391
5420 5420 5421 5421 5422 5422 5422 5422 5422 5421 5420 5420 5419 5418 5417 5416 5414 5412 5410 5408 5407 5405 5403 5401 5399 5397 5395 5394 5393 5392 5390 5389 5388 5387 5386 5385 5384 5383 5383 5383 5384 5385 5386 5387
5413 5413 5414 5414 5414 5414 5413 5413 5412 5412 5411 5410 5409 5408 5407 5406 5405 5403 5401 5399 5397 5395 5393 5391 5390 5388 5387 5386 5385 5384 5383 5382 5381 5381 5380 5379 5378 5378 5378 5379 5380 5381 5382 5384
5405 5406 5406 5406 5406 5406 5405 5405 5404 5403 5402 5401 5401 5400 5398 5397 5396 5394 5392 5390 5388 5386 5384 5382 5381 5380 5379 5378 5377 5377 5376 5376 5375 5375 5374 5374 5373 5373 5374 5375 5376 5377 5379 5381
5398 5398 5398 5398 5398 5398 5397 5397 5396 5395 5394 5393 5392 5391 5390 5389 5387 5386 5384 5382 5380 5379 5377 5375 5374 5373 5372 5371 5371 5370 5370 5369 5369 5369 5368 5369 5369 5369 5370 5371 5373 5374 5376 5378
5391 5391 5391 5391 5391 5390 5390 5389 5389 5388 5387 5386 5385 5384 5382 5381 5379 5378 5376 5375 5373 5371 5370 5368 5367 5366 5365 5364 5364 5364 5364 5363 5363 5363 5363 5364 5365 5365 5366 5368 5369 5371 5373 5375
5385 5385 5384 5384 5384 5383 5383 5382 5382 5381 5380 5379 5378 5377 5375 5374 5372 5370 5369 5368 5366 5364 5363 5362 5360 5360 5359 5358 5358 5358 5358 5358 5358 5359 5359 5360 5361 5362 5363 5364 5366 5368 5370 5373
5379 5379 5378 5378 5377 5377 5376 5376 5375 5374 5373 5372 5371 5370 5368 5367 5365 5363 5362 5360 5359 5358 5356 5355 5354 5353 5353 5353 5353 5353 5353 5353 5354 5354 5355 5356 5358 5359 5360 5362 5364 5366 5368 5370
5373 5373 5372 5372 5371 5371 5370 5370 5369 5368 5367 5366 5364 5363 5361 5360 5358 5357 5355 5354 5352 5351 5350 5349 5348 5348 5347 5347 5348 5348 5348 5349 5349 5350 5352 5353 5355 5356 5358 5359 5361 5364 5366 5369
5368 5368 5367 5367 5366 5366 5365 5364 5363 5362 5360 5359 5358 5356 5355 5353 5352 5350 5349 5348 5346 5345 5344 5344 5343 5342 5342 5342 5343 5343 5343 5344 5345 5347 5348 5350 5352 5354 5356 5358 5360 5362 5365 5368
5363 5363 5362 5362 5361 5360 5359 5358 5357 5356 5355 5353 5352 5350 5349 5348 5346 5345 5344 5343 5342 5341 5340 5339 5338 5338 5338 5338 5338 5339 5340 5341 5342 5344 5346 5348 5350 5352 5354 5357 5359 5362 5364 5367
5359 5358 5357 5357 5356 5356 5354 5353 5352 5351 5350 5349 5347 5346 5344 5343 5342 5341 5340 5338 5337 5336 5336 5335 5334 5334 5334 5335 5335 5336 5337 5338 5340 5342 5344 5346 5349 5351 5354 5356 5359 5362 5365 5368
5354 5354 5353 5352 5352 5351 5350 5349 5348 5346 5345 5344 5343 5342 5341 5340 5338 5337 5336 5335 5334 5333 5333 5332 5332 5332 5332 5332 5333 5334 5335 5336 5338 5340 5343 5345 5348 5351 5354 5356 5359 5362 5365 5369
Wind_Speed
45 45 45 46 47 47 47 47 48 47 47 46 46 47 47 48 48 48 48 49 49 49 49 50 50 51 52 54 54 55 56 56 56 57 57 57 57 58 59 59 58 57 55 55
45 45 46 46 47 47 47 47 48 48 48 47 48 48 49 49 49 49 49 50 50 50 50 51 51 52 53 54 55 55 55 55 56 56 56 56 56 56 56 55 54 53 52 52
46 47 47 48 46 46 47 47 47 48 48 48 49 49 49 50 50 51 51 51 51 51 51 51 52 53 53 54 55 55 55 55 56 56 55 55 55 54 53 52 51 49 49 48
46 47 49 48 47 47 47 47 48 48 48 49 50 50 49 50 50 51 51 51 51 51 51 52 53 54 54 54 55 55 55 55 55 55 54 53 52 51 50 49 48 47 46 44
43 45 47 46 45 46 47 48 47 48 48 48 49 49 48 48 49 49 50 50 51 51 51 52 53 54 54 54 54 54 53 54 53 53 52 50 49 48 47 46 45 43 42 41
40 41 42 43 43 44 46 46 46 47 47 47 48 48 47 47 48 49 50 50 51 51 51 52 53 53 53 52 52 51 51 51 51 50 49 48 47 46 45 44 43 42 40 38
37 38 38 39 40 41 42 43 44 45 45 45 46 47 46 47 47 48 49 50 50 50 51 51 51 51 50 49 48 49 49 49 49 48 47 47 46 45 43 42 41 39 37 35
35 36 35 35 37 38 39 40 41 41 42 43 43 44 44 44 45 46 46 47 47 48 48 49 49 48 47 47 46 47 48 48 47 46 46 45 44 42 41 40 38 36 33 32
35 34 35 35 36 37 38 39 39 40 40 40 41 41 42 43 44 44 45 46 47 47 47 47 48 47 47 46 46 46 46 45 44 43 43 43 42 40 39 37 35 33 31 29
33 33 34 35 35 36 37 37 38 39 39 39 40 40 40 41 42 42 44 45 46 47 47 47 47 47 46 46 46 46 45 44 42 41 41 40 39 37 35 34 32 30 28 26
32 32 34 34 34 35 36 36 37 38 39 39 39 40 40 40 40 42 43 44 46 46 46 46 46 46 45 45 44 44 43 41 40 39 39 38 36 34 32 30 29 27 24 23
33 33 34 34 34 35 35 36 37 38 38 39 39 40 40 40 41 42 43 44 44 44 44 44 44 43 42 42 41 41 40 39 38 37 36 35 33 31 30 28 27 25 23 22
32 33 34 35 34 34 35 35 36 36 36 37 38 39 39 40 40 41 41 41 40 40 40 41 40 40 39 39 38 38 36 35 35 34 34 33 31 28 26 26 25 23 21 20
31 31 32 33 34 34 35 35 35 35 35 36 37 38 38 38 38 38 38 37 37 36 36 37 37 36 36 35 35 34 33 33 32 31 30 28 26 25 23 22 21 20 18 17
28 29 30 30 31 33 33 34 33 33 34 34 35 35 36 36 36 35 35 35 34 34 34 34 34 34 34 33 32 32 31 30 28 26 25 24 22 21 20 19 18 17 16 15
26 26 27 28 29 30 30 30 31 32 32 32 33 33 34 34 34 33 34 34 34 34 34 33 32 32 31 31 30 29 27 25 24 22 21 20 19 18 17 16 15 14 14 13
25 25 26 27 27 28 28 28 28 29 29 30 30 30 31 31 31 31 32 33 33 33 32 31 30 28 27 27 26 25 24 23 22 21 20 18 17 16 15 14 13 13 13 13
25 25 26 26 26 26 26 26 26 26 26 26 27 28 28 28 28 28 28 28 28 28 27 26 25 24 24 23 23 22 21 21 20 20 18 16 15 14 13 13 13 13 13 13
24 24 25 25 25 24 24 24 24 25 25 25 26 25 25 25 25 25 24 24 25 24 23 23 22 22 22 22 21 20 19 19 18 18 17 15 14 13 12 12 12 13 13 13
22 23 23 24 24 23 24 24 23 23 23 23 23 23 23 23 23 24 24 24 23 23 22 22 22 21 21 20 19 18 17 16 16 16 14 13 13 12 12 12 11 12 13 13
21 21 21 22 22 21 21 22 22 22 22 22 22 22 22 23 23 24 23 23 22 22 21 21 20 19 18 17 16 16 15 14 14 14 12 12 12 12 11 11 11 11 12 12
18 19 19 19 20 20 20 21 21 21 21 22 22 22 22 23 23 22 22 21 21 20 20 19 18 17 17 16 16 15 14 13 13 12 12 11 11 11 11 11 11 11 11 11
17 17 17 18 18 18 19 19 19 20 21 21 21 22 22 21 21 20 19 19 20 19 18 17 16 16 15 15 15 15 14 13 12 12 12 11 11 10 10 10 10 10 10 11
16 16 16 17 17 17 18 18 19 19 20 20 20 19 19 18 17 17 17 17 16 16 15 15 14 14 14 14 13 13 12 12 11 11 11 11 10 10 10 10 10 10 11 12
15 16 16 16 16 17 17 17 18 18 17 17 17 16 16 16 15 15 15 14 14 13 13 12 12 12 12 12 11 11 11 10 10 10 10 10 9 10 10 10 10 10 11 13
15 15 15 15 16 16 16 16 16 15 15 14 14 14 13 13 12 12 12 12 11 11 10 10 10 10 10 9 9 9 9 9 9 9 10 10 10 10 10 11 11 12 13 13
15 15 15 15 15 15 15 14 14 13 12 12 11 10 10 9 9 8 8 8 8 7 7 7 6 6 6 6 5 6 7 8 8 9 10 11 11 11 12 12 13 14 15 15
Wind_Direction
243 244 245 247 248 249 251 253 256 257 259 261 263 265 268 270 272 274 275 277 278 280 281 282 283 285 286 286 287 288 289 291 291 292 292 292 291 292 292 292 292 291 289 288
244 245 246 247 248 250 251 253 255 257 258 260 262 265 268 270 272 273 274 276 277 279 280 282 283 285 286 287 287 288 290 291 292 292 292 292 292 293 293 293 292 290 289 289
246 246 247 248 249 252 253 255 257 259 260 261 262 264 266 268 270 272 274 275 277 279 281 282 283 284 286 287 288 289 290 291 291 291 291 291 292 293 293 293 292 290 290 290
248 248 249 251 251 252 254 255 258 259 260 261 262 264 266 268 270 272 274 275 277 279 281 282 283 285 286 287 288 289 290 291 291 291 291 292 292 292 293 293 292 291 291 290
249 251 252 253 254 256 257 257 259 260 261 262 263 264 267 269 271 273 274 276 278 279 281 283 284 286 287 287 287 288 289 290 290 291 291 292 292 292 293 292 292 291 291 291
248 252 254 254 255 257 259 260 260 261 262 262 263 265 267 269 271 273 274 276 278 280 282 283 285 286 287 286 287 287 288 290 291 291 291 291 292 292 292 292 291 291 290 290
250 253 255 256 257 258 260 261 262 263 263 264 265 267 269 270 272 273 275 276 278 280 282 283 285 286 286 286 286 287 288 290 291 291 291 292 292 292 292 292 292 291 290 288
254 256 257 258 259 259 262 263 264 265 266 267 268 269 270 272 273 275 276 277 278 279 281 283 284 285 285 285 286 287 288 289 289 289 290 291 291 291 292 292 291 290 288 285
255 257 257 258 260 261 263 264 266 266 266 267 268 270 272 274 275 276 277 278 279 280 282 283 285 285 285 285 286 287 288 288 289 289 290 291 291 291 291 290 290 289 285 281
256 256 256 256 259 261 263 264 266 267 267 268 268 271 274 276 277 278 279 280 281 282 282 283 284 284 284 285 286 287 287 288 288 288 290 291 291 290 290 288 287 287 282 277
256 258 256 256 258 260 261 264 265 267 267 269 270 272 274 276 278 280 281 282 282 282 281 282 283 284 284 285 287 287 288 287 286 287 288 289 290 289 288 287 285 284 279 274
258 258 258 259 260 261 262 263 265 265 266 267 270 272 274 277 279 281 282 282 282 282 282 282 283 283 284 285 286 287 287 286 285 285 287 287 287 286 285 284 283 280 275 271
259 260 262 263 263 264 264 265 265 265 267 268 270 273 275 277 278 279 281 282 281 281 282 282 282 282 282 284 285 286 287 287 286 286 286 286 284 282 281 281 281 277 272 268
260 263 264 264 264 265 266 267 268 268 269 270 272 274 276 278 279 280 281 282 282 283 284 284 283 282 282 283 284 286 286 287 287 287 286 285 283 280 279 277 274 271 268 264
261 265 266 266 266 267 269 269 270 271 272 273 275 276 277 278 280 281 282 283 284 285 286 286 285 283 281 282 283 285 285 285 285 285 285 285 282 280 277 275 270 264 260 256
262 264 266 266 267 268 270 271 271 272 272 274 275 275 277 279 281 282 283 284 286 287 287 287 285 282 280 282 283 283 283 283 283 283 284 284 283 279 273 270 266 259 252 246
263 264 265 266 267 269 270 271 271 273 274 274 275 276 277 280 281 283 284 285 287 288 287 285 285 283 281 281 281 280 280 279 280 281 282 282 280 276 270 263 256 251 245 240
266 267 267 267 268 270 271 272 273 273 272 273 274 275 277 279 281 283 285 286 288 289 287 286 286 284 282 281 280 279 278 278 278 280 280 279 276 270 263 255 250 245 241 237
266 267 268 269 270 269 270 272 274 275 275 276 277 277 279 281 282 284 285 287 289 288 286 286 287 286 284 282 282 281 278 276 276 277 276 273 268 262 256 252 249 244 241 236
267 269 270 271 272 273 272 273 275 276 278 279 279 279 280 281 283 285 286 287 287 286 285 285 286 286 284 282 280 279 277 275 275 275 270 263 257 253 250 247 244 236 232 229
268 270 271 272 273 275 277 278 278 278 279 281 281 282 282 283 285 287 288 287 286 286 286 285 284 283 281 279 276 275 274 273 271 269 261 254 249 245 243 239 235 227 223 222
270 272 274 273 273 276 278 279 279 279 281 281 282 284 285 286 287 289 288 286 285 285 285 284 282 280 276 273 271 270 269 267 265 259 250 245 242 239 237 233 227 218 214 212
273 275 276 276 276 277 278 280 281 282 284 284 285 286 287 287 287 287 287 286 285 284 283 282 280 278 274 271 268 267 265 261 256 250 245 240 235 230 227 221 214 209 206 200
275 276 277 276 277 278 281 283 285 286 286 287 287 287 287 287 287 288 288 288 287 285 284 281 278 276 273 270 267 264 259 252 246 241 238 232 226 220 214 209 205 201 195 190
276 278 277 276 278 281 284 286 287 289 288 288 289 289 289 288 288 288 287 286 286 286 285 283 279 275 272 267 263 260 251 239 234 230 223 218 212 205 199 196 192 186 180 177
278 279 278 278 280 284 286 286 286 286 287 289 292 293 292 292 292 291 290 291 290 288 286 284 280 275 271 263 257 250 236 226 222 217 209 200 194 190 187 183 177 172 169 168
278 280 279 279 281 286 288 287 286 286 287 290 293 294 296 298 301 301 300 301 300 295 291 289 282 275 262 250 240 227 212 203 201 198 191 186 182 178 175 171 168 166 164 163